CW6238 Weather Reports


Display with metric or nautical units.
time (UTC)temp
F
wind
direction
speed
MPH
gust
MPH
rain 1hr
in
rain 24hr
in
rain mn
in
humidity
%
barometer
mb
20240224133518 39 0.0 0.0 0.00 0.00 0.00 87 994.9
20240224132519 39 90 1.0 4.0 0.00 0.00 0.00 87 994.9
20240224131539 39 0.0 2.0 0.00 0.00 0.00 86 994.9
20240224130539 39 0.0 2.0 0.00 0.00 0.00 86 994.9
20240224125518 39 0.0 2.0 0.00 0.00 0.00 86 994.9
20240224124518 39 0.0 2.0 0.00 0.00 0.00 85 995.0
20240224123518 40 113 1.0 2.0 0.00 0.00 0.00 85 995.1
20240224122518 40 0.0 2.0 0.00 0.00 0.00 85 995.2
20240224121519 40 113 1.0 3.0 0.00 0.00 0.00 85 995.4
20240224120518 40 135 1.0 3.0 0.00 0.00 0.00 85 995.5
20240224115520 40 0.0 2.0 0.00 0.00 0.00 85 995.5
20240224114518 40 0.0 1.0 0.00 0.00 0.00 85 995.6
20240224113519 40 0.0 0.0 0.00 0.00 0.00 85 995.6
20240224112521 40 0.0 0.0 0.00 0.00 0.00 85 995.7
20240224111540 40 0.0 1.0 0.00 0.00 0.00 85 995.8
20240224110538 40 0.0 1.0 0.00 0.00 0.00 85 996.0
20240224105519 39 0.0 2.0 0.00 0.00 0.00 85 996.1
20240224104558 39 0.0 3.0 0.00 0.00 0.00 85 996.1
20240224103520 39 135 1.0 3.0 0.00 0.00 0.00 85 996.2
20240224102518 39 135 1.0 3.0 0.00 0.00 0.00 85 996.3
20240224101519 39 0.0 2.0 0.00 0.00 0.00 85 996.4
20240224100518 39 135 1.0 2.0 0.00 0.00 0.00 85 996.5
20240224095518 39 135 1.0 4.0 0.00 0.00 0.00 86 996.4
20240224094520 39 158 1.0 4.0 0.00 0.00 0.00 86 996.4
20240224093520 39 135 1.0 3.0 0.00 0.00 0.00 87 996.5
20240224092518 38 158 1.0 2.0 0.00 0.00 0.00 87 996.6
20240224091521 38 0.0 2.0 0.00 0.00 0.00 88 996.8
20240224090520 38 135 1.0 8.0 0.00 0.00 0.00 88 996.8
20240224085520 38 135 2.0 6.0 0.00 0.00 0.00 88 996.8
20240224084518 38 135 2.0 4.0 0.00 0.00 0.00 88 996.8
20240224083520 38 135 1.0 5.0 0.00 0.01 0.00 89 996.8
20240224082520 37 0.0 2.0 0.00 0.01 0.00 89 996.7
20240224081520 37 113 1.0 4.0 0.00 0.01 0.00 90 996.7
20240224080518 37 135 1.0 6.0 0.00 0.02 0.00 90 996.7
20240224075541 37 135 1.0 4.0 0.00 0.02 0.00 90 996.8
20240224074520 37 135 1.0 5.0 0.00 0.02 0.00 90 996.8
20240224073520 37 135 1.0 5.0 0.00 0.02 0.00 90 996.9
20240224072518 37 113 1.0 5.0 0.00 0.03 0.00 91 996.9
20240224071520 36 135 1.0 3.0 0.00 0.05 0.00 91 997.0
20240224070520 36 0.0 3.0 0.00 0.06 0.00 91 997.0
20240224065538 36 113 1.0 3.0 0.00 0.07 0.00 91 997.0
20240224064541 36 113 1.0 2.0 0.00 0.09 0.00 91 997.0
20240224063520 36 135 1.0 3.0 0.00 0.09 0.00 91 997.0
20240224062521 36 113 1.0 4.0 0.00 0.11 0.00 91 996.9
20240224061520 36 135 1.0 4.0 0.00 0.12 0.00 91 996.8
20240224060521 36 113 1.0 4.0 0.00 0.13 0.00 90 996.7
20240224055519 36 68 1.0 2.0 0.00 0.13 0.00 90 996.6
20240224054541 36 0.0 3.0 0.00 0.14 0.00 90 996.5
20240224053521 36 0.0 4.0 0.00 0.14 0.00 89 996.5
20240224052520 36 135 1.0 4.0 0.00 0.14 0.00 89 996.5
20240224051520 36 0.0 3.0 0.00 0.14 0.00 89 996.4
20240224050520 36 135 1.0 3.0 0.00 0.14 0.00 90 996.4
20240224045520 36 158 1.0 3.0 0.00 0.15 0.00 90 996.3
20240224044521 36 180 1.0 4.0 0.00 0.15 0.00 90 996.3
20240224043520 35 0.0 1.0 0.00 0.16 0.00 90 996.2
20240224042521 35 90 1.0 3.0 0.00 0.17 0.00 91 996.0
20240224041520 35 135 1.0 3.0 0.00 0.17 0.00 91 996.0
20240224040520 35 135 1.0 4.0 0.00 0.17 0.00 91 995.9
20240224035520 35 113 1.0 3.0 0.00 0.17 0.00 91 995.8
20240224034540 35 113 1.0 4.0 0.00 0.17 0.00 90 995.9
20240224033540 35 135 2.0 7.0 0.00 0.18 0.00 90 995.8
20240224032520 35 113 1.0 5.0 0.00 0.18 0.00 90 995.8
20240224031520 35 90 1.0 2.0 0.00 0.19 0.00 89 995.6
20240224030520 36 113 1.0 5.0 0.00 0.19 0.00 89 995.8
20240224025519 36 90 1.0 4.0 0.00 0.20 0.00 89 995.7
20240224024541 36 225 1.0 10.0 0.00 0.20 0.00 89 995.5
20240224023520 36 113 1.0 7.0 0.00 0.21 0.00 89 995.5
20240224022519 36 135 1.0 5.0 0.00 0.21 0.00 89 995.3
20240224021520 36 113 1.0 3.0 0.00 0.22 0.00 89 995.2
20240224020542 36 90 1.0 2.0 0.00 0.22 0.00 89 995.1
20240224015519 36 135 1.0 3.0 0.00 0.23 0.00 89 995.1
20240224014539 36 135 1.0 5.0 0.00 0.23 0.00 89 995.0
20240224013520 36 113 1.0 5.0 0.00 0.24 0.00 89 994.9
20240224012522 36 0.0 2.0 0.00 0.24 0.00 89 994.8
20240224011519 36 135 2.0 6.0 0.00 0.24 0.00 89 994.7
20240224010519 36 135 1.0 5.0 0.00 0.24 0.00 89 994.7
20240224005519 36 135 1.0 3.0 0.00 0.25 0.00 89 994.5
20240224004519 36 113 1.0 4.0 0.00 0.26 0.00 89 994.4
20240224003519 36 113 1.0 3.0 0.00 0.26 0.00 89 994.3
20240224002539 36 113 1.0 5.0 0.00 0.27 0.00 89 994.2
20240224001520 36 135 1.0 5.0 0.00 0.27 0.00 90 994.2
20240224000520 36 90 1.0 6.0 0.00 0.28 0.00 90 994.1
20240223235519 36 0.0 2.0 0.00 0.28 0.00 90 993.9
20240223234520 36 0.0 1.0 0.00 0.28 0.00 89 993.8
20240223233519 36 0.0 2.0 0.00 0.28 0.00 89 993.6
20240223232520 37 0.0 3.0 0.00 0.28 0.00 89 993.5
20240223231519 37 158 1.0 3.0 0.00 0.28 0.00 89 993.5
20240223230519 37 180 1.0 3.0 0.00 0.29 0.00 89 993.5
20240223225520 37 225 1.0 5.0 0.00 0.29 0.29 89 993.3
20240223224519 37 270 1.0 5.0 0.00 0.30 0.29 89 993.2
20240223223519 37 0.0 2.0 0.00 0.30 0.29 89 993.3
20240223222519 37 203 1.0 5.0 0.00 0.31 0.29 89 993.2
20240223221519 37 203 1.0 3.0 0.00 0.31 0.29 89 993.0
20240223220519 37 203 1.0 5.0 0.00 0.31 0.29 89 992.9
20240223215519 37 248 1.0 4.0 0.00 0.31 0.29 89 992.9
20240223214519 37 135 1.0 8.0 0.00 0.31 0.29 88 993.0
20240223213539 38 203 1.0 4.0 0.00 0.31 0.29 88 992.8
20240223212519 38 113 1.0 3.0 0.00 0.31 0.29 88 992.7
20240223211540 38 203 1.0 5.0 0.00 0.32 0.29 88 992.5
20240223210519 38 248 1.0 6.0 0.00 0.32 0.29 88 992.3
20240223205519 38 225 2.0 5.0 0.00 0.32 0.29 88 992.1
20240223204520 38 225 1.0 4.0 0.00 0.32 0.29 88 991.8
20240223203539 38 180 1.0 3.0 0.00 0.32 0.29 87 991.5
20240223202520 38 225 2.0 9.0 0.00 0.32 0.29 87 991.2
20240223201519 38 180 2.0 7.0 0.00 0.32 0.29 87 990.9
20240223200519 38 225 2.0 6.0 0.00 0.33 0.29 86 990.7
20240223195539 38 248 1.0 4.0 0.00 0.33 0.29 86 990.5
20240223194519 38 135 2.0 6.0 0.00 0.33 0.29 86 990.2
20240223193539 39 135 2.0 7.0 0.00 0.33 0.29 85 989.9
20240223192519 39 225 1.0 8.0 0.00 0.33 0.29 85 989.8
20240223191519 39 203 1.0 4.0 0.00 0.34 0.29 84 989.6
20240223190518 39 180 2.0 7.0 0.00 0.34 0.29 84 989.5
20240223185519 39 248 1.0 4.0 0.00 0.34 0.29 84 989.1
20240223184519 39 225 1.0 5.0 0.00 0.34 0.29 85 988.9
20240223183519 39 225 1.0 6.0 0.00 0.34 0.29 84 988.7
20240223182519 39 203 2.0 10.0 0.00 0.34 0.29 84 988.4
20240223181519 39 270 2.0 7.0 0.00 0.34 0.29 84 988.2
20240223180519 39 248 2.0 7.0 0.00 0.34 0.29 83 988.1
20240223175519 39 225 2.0 6.0 0.00 0.34 0.29 83 987.8
20240223174519 39 225 2.0 6.0 0.00 0.34 0.29 82 987.6
20240223173519 39 203 3.0 10.0 0.00 0.34 0.29 82 987.3
20240223172538 40 225 3.0 8.0 0.00 0.34 0.29 81 987.1
20240223171519 40 225 2.0 7.0 0.00 0.34 0.29 81 986.9
20240223170519 40 158 2.0 10.0 0.00 0.34 0.29 81 986.7
20240223165519 40 225 2.0 7.0 0.00 0.34 0.29 80 986.3
20240223164518 40 203 3.0 7.0 0.00 0.34 0.29 80 986.1
20240223163519 40 225 2.0 7.0 0.00 0.34 0.29 79 986.0
20240223162519 40 225 2.0 5.0 0.00 0.34 0.29 79 985.8
20240223161519 41 203 2.0 9.0 0.00 0.34 0.29 79 985.4
20240223160519 41 248 1.0 8.0 0.00 0.34 0.29 78 985.2
20240223155519 41 225 3.0 8.0 0.00 0.34 0.29 77 985.0
20240223154519 42 135 2.0 7.0 0.00 0.34 0.29 76 984.8
20240223153519 42 203 3.0 10.0 0.00 0.34 0.29 75 984.4
20240223152519 43 225 3.0 8.0 0.00 0.34 0.29 74 984.3
20240223151519 44 225 3.0 7.0 0.00 0.34 0.29 73 984.1
20240223150519 44 225 4.0 12.0 0.00 0.34 0.29 73 983.7
20240223145519 44 248 3.0 11.0 0.00 0.34 0.29 73 983.5
20240223144518 44 180 4.0 10.0 0.00 0.34 0.29 73 983.4
20240223143558 44 180 4.0 12.0 0.00 0.34 0.29 74 983.3
20240223142539 45 225 3.0 8.0 0.00 0.34 0.29 74 983.0
20240223141538 44 248 2.0 8.0 0.00 0.34 0.29 76 982.8
20240223140519 43 203 2.0 10.0 0.00 0.34 0.29 77 982.5
20240223135539 43 203 3.0 10.0 0.00 0.34 0.29 77 982.2
20240223134518 43 203 2.0 4.0 0.00 0.34 0.29 78 981.9